Location: Cheching
(60.0667°N, 164.2167°W)
Time: 00:05:34
(UTC+00:00)

STARS - Visible Passes

Search period start: 24 January 2021 00:00
Search period end: 03 February 2021 00:00
Orbit: 623 x 640 km, 98.2° (Epoch: 23 January)

Date Brightness Start Highest point End Pass type
(mag) Time Alt. Az. Time Alt. Az. Time Alt. Az.
24 Jan ? 17:46:25 10° ESE 17:50:06 27° NE 17:53:47 10° N visible
25 Jan ? 16:34:12 10° NE 16:35:32 11° NE 16:36:51 10° NNE visible
25 Jan ? 18:06:47 10° SE 18:10:47 36° ENE 18:14:47 10° N visible
26 Jan ? 16:53:46 10° ENE 16:56:03 14° NE 16:58:21 10° N visible
26 Jan ? 18:27:18 10° SE 18:31:30 49° ENE 18:35:44 10° N visible
27 Jan ? 17:13:40 10° E 17:16:37 18° NE 17:19:33 10° N visible
28 Jan ? 17:33:48 10° ESE 17:37:13 23° NE 17:40:39 10° N visible
29 Jan ? 17:54:05 10° ESE 17:57:52 30° NE 18:01:40 10° N visible
30 Jan ? 16:41:32 10° ENE 16:43:15 12° NE 16:44:58 10° NNE visible
30 Jan ? 18:14:29 10° SE 18:18:34 40° ENE 18:22:39 10° N visible
31 Jan ? 17:01:14 10° E 17:03:46 15° NE 17:06:19 10° N visible
01 Feb ? 17:21:14 10° E 17:24:21 19° NE 17:27:28 10° N visible
02 Feb ? 17:41:25 10° ESE 17:44:58 25° NE 17:48:32 10° N visible
